This demonstration page uses our WeatherBlox Daily Observations layout. Learn more.

Hourly Observations for October 21, 2016

Temp ( °F °C ) Dew Point ( °F °C ) Humidity (%) Winds ( mph kmh ) Pressure ( in mb ) Visibility ( mi km ) Precip ( " mm )
12:15 am 00:15 Clear 38 3.5 32 0 78 78 SSE 3 6 30.33 1027 10 16.09344 0 0
12:35 am 00:35 Clear 39 3.7 32 0 77 77 S 5 7 30.33 1027 10 16.09344 0 0
12:55 am 00:55 Clear 39 3.8 32 0.1 77 77 S 7 11 30.33 1027 10 16.09344 0 0
1:15 am 01:15 Clear 39 4.1 33 0.3 77 77 S 7 11 30.33 1027 10 16.09344 0 0
1:35 am 01:35 Clear 39 3.8 33 0.5 79 79 S 6 9 30.3 1026 10 16.09344 0 0
1:55 am 01:55 Clear 38 3.5 33 0.5 81 81 SSE 5 7 30.3 1026 10 16.09344 0 0
2:15 am 02:15 Clear 39 3.7 33 0.8 82 82 S 5 7 30.3 1026 10 16.09344 0 0
2:35 am 02:35 Clear 38 3.2 33 0.8 84 84 Calm 30.3 1026 10 16.09344 0 0
2:55 am 02:55 Clear 37 3 34 0.9 86 86 S 5 7 30.3 1026 10 16.09344 0 0
3:15 am 03:15 Clear 40 4.5 36 2.3 86 86 S 6 9 30.3 1026 10 16.09344 0 0
3:35 am 03:35 Clear 40 4.6 37 2.5 86 86 SSW 6 9 30.3 1026 10 16.09344 0 0
3:55 am 03:55 Clear 41 4.8 37 2.6 86 86 S 6 9 30.24 1024 10 16.09344 0 0
4:15 am 04:15 Clear 41 5 37 2.5 84 84 S 6 9 30.24 1024 10 16.09344 0 0
4:35 am 04:35 Clear 40 4.7 37 2.5 86 86 S 6 9 30.24 1024 10 16.09344 0 0
4:55 am 04:55 Clear 40 4.5 36 2.1 85 85 S 6 9 30.24 1024 10 16.09344 0 0
5:15 am 05:15 Clear 39 3.9 35 1.7 86 86 SSW 6 9 30.27 1025 10 16.09344 0 0
5:35 am 05:35 Clear 39 4.1 36 2 86 86 S 9 15 30.27 1025 10 16.09344 0 0
5:55 am 05:55 Clear 39 4 35 1.6 85 85 S 9 15 30.27 1025 10 16.09344 0 0
6:15 am 06:15 Clear 39 3.7 35 1.5 86 86 S 7 11 30.24 1024 10 16.09344 0 0
6:35 am 06:35 Clear 38 3.6 35 1.5 86 86 SSW 7 11 30.27 1025 10 16.09344 0 0
6:55 am 06:55 Clear 39 3.7 35 1.5 86 86 SSW 8 13 30.24 1024 10 16.09344 0 0
7:15 am 07:15 Clear 39 3.7 35 1.5 86 86 SSW 7 11 30.24 1024 10 16.09344 0 0
7:35 am 07:35 Clear 38 3.6 35 1.5 86 86 SSW 7 11 30.24 1024 10 16.09344 0 0
7:55 am 07:55 Clear 39 4 35 1.6 85 85 SSW 9 15 30.24 1024 10 16.09344 0 0
8:15 am 08:15 Sunny 40 4.2 35 1.9 85 85 SSW 9 15 30.21 1023 10 16.09344 0 0
8:35 am 08:35 Sunny 40 4.4 36 2 85 85 SSW 8 13 30.18 1022 10 16.09344 0 0
8:55 am 08:55 Sunny 42 5.5 37 2.5 81 81 SSW 10 17 30.21 1023 10 16.09344 0 0
9:15 am 09:15 Sunny 44 6.5 38 3.1 79 79 SSW 12 19 30.18 1022 10 16.09344 0 0
9:35 am 09:35 Sunny 45 7.3 38 3.4 77 77 SSW 14 22 30.15 1021 10 16.09344 0 0
9:55 am 09:55 Sunny 47 8.5 38 3.6 72 72 SSW 14 22 30.15 1021 10 16.09344 0 0
10:15 am 10:15 Sunny 48 9 38 3.6 69 69 SSW 17 28 30.15 1021 10 16.09344 0 0
10:35 am 10:35 Sunny 51 10.3 38 3.6 63 63 SSW 21 33 30.15 1021 10 16.09344 0 0
10:55 am 10:55 Sunny 53 11.4 38 3.5 59 59 SSW 18 30 30.12 1020 10 16.09344 0 0
11:15 am 11:15 Sunny 56 13.1 38 3.4 52 52 S 21 33 30.12 1020 10 16.09344 0 0
11:35 am 11:35 Sunny 59 14.9 37 2.9 45 45 S 18 30 30.09 1019 10 16.09344 0 0
11:55 am 11:55 Sunny 60 15.5 35 1.7 40 40 S 21 33 30.06 1018 10 16.09344 0 0
12:15 pm 12:15 Sunny 60 15.6 36 2.1 40 40 S 22 35 30.06 1018 10 16.09344 0 0
12:35 pm 12:35 Sunny 61 16 36 2.3 40 40 SSW 17 28 30.06 1018 10 16.09344 0 0
1:15 pm 13:15 Sunny 63 17.1 37 2.5 38 38 SSW 14 22 30 1016 10 16.09344 0 0
1:35 pm 13:35 Sunny 64 18 36 2 34 34 SW 13 20 30 1016 10 16.09344 0 0
1:55 pm 13:55 Sunny 65 18.6 36 2 33 33 SSW 15 24 30 1016 10 16.09344 0 0
2:15 pm 14:15 Sunny 66 19 35 1.5 31 31 SSW 13 20 29.97 1015 10 16.09344 0 0
2:35 pm 14:35 Sunny 67 19.2 33 0.8 29 29 SSW 13 20 29.97 1015 10 16.09344 0 0
2:55 pm 14:55 Sunny 66 19 33 0.8 30 30 SW 10 17 29.97 1015 10 16.09344 0 0
3:15 pm 15:15 Sunny 67 19.4 33 0.8 29 29 SW 10 17 29.97 1015 10 16.09344 0 0
3:35 pm 15:35 Sunny 68 20.1 33 0.4 27 27 SSW 10 17 29.94 1014 10 16.09344 0 0
3:55 pm 15:55 Sunny 69 20.4 31 -0.3 25 25 W 9 15 29.91 1013 10 16.09344 0 0
4:15 pm 16:15 Sunny 68 19.8 30 -0.9 25 25 W 8 13 29.94 1014 10 16.09344 0 0
4:35 pm 16:35 Sunny 68 20 31 -0.6 25 25 SW 5 7 29.94 1014 10 16.09344 0 0
4:55 pm 16:55 Sunny 67 19.4 31 -0.3 27 27 WSW 6 9 29.97 1015 10 16.09344 0 0
5:15 pm 17:15 Sunny 67 19.5 31 -0.7 26 26 WSW 6 9 29.97 1015 10 16.09344 0 0
5:35 pm 17:35 Sunny 67 19.5 31 -0.6 26 26 W 6 9 29.97 1015 10 16.09344 0 0
5:55 pm 17:55 Sunny 67 19.3 30 -0.9 26 26 W 3 6 29.97 1015 10 16.09344 0 0
6:15 pm 18:15 Sunny 66 19.1 31 -0.8 26 26 Calm 29.97 1015 10 16.09344 0 0
6:35 pm 18:35 Sunny 65 18.3 30 -1.1 27 27 Calm 29.97 1015 10 16.09344 0 0
6:55 pm 18:55 Clear 59 15.1 31 -0.3 35 35 Calm 30 1016 10 16.09344 0 0
7:15 pm 19:15 Clear 57 13.9 32 0.1 39 39 Calm 30 1016 10 16.09344 0 0
7:35 pm 19:35 Clear 53 11.5 33 0.3 46 46 Calm 30.03 1017 10 16.09344 0 0
7:55 pm 19:55 Clear 51 10.8 32 0 48 48 Calm 30.03 1017 10 16.09344 0 0
8:15 pm 20:15 Clear 50 9.8 32 0.2 52 52 Calm 30.03 1017 10 16.09344 0 0
8:35 pm 20:35 Clear 50 10 32 0 50 50 Calm 30.03 1017 10 16.09344 0 0
8:55 pm 20:55 Clear 49 9.6 32 0 52 52 SSW 3 6 30.09 1019 10 16.09344 0 0
9:15 pm 21:15 Clear 46 7.7 32 0.1 59 59 Calm 30.09 1019 10 16.09344 0 0
9:35 pm 21:35 Clear 47 8.3 32 0.2 57 57 Calm 30.09 1019 10 16.09344 0 0
9:55 pm 21:55 Clear 45 7.3 33 0.3 61 61 Calm 30.09 1019 10 16.09344 0 0
10:15 pm 22:15 Clear 44 6.9 32 0.1 62 62 SSW 5 7 30.09 1019 10 16.09344 0 0
10:35 pm 22:35 Clear 45 7.1 32 0.2 62 62 Calm 30.09 1019 10 16.09344 0 0
10:55 pm 22:55 Clear 42 5.8 32 0.1 67 67 Calm 30.12 1020 10 16.09344 0 0
11:15 pm 23:15 Clear 41 5 32 0.2 71 71 Calm 30.09 1019 10 16.09344 0 0
11:35 pm 23:35 Clear 42 5.8 33 0.4 69 69 Calm 30.12 1020 10 16.09344 0 0
11:55 pm 23:55 Clear 40 4.7 32 0.1 72 72 Calm 30.12 1020 10 16.09344 0 0

Powered by AerisWeather